Weather History for Pellston, MI

Change the Weather History Date:

Wednesday, March 26, 2014

  Actual Average Record
Temperature  
Mean Temperature 6 °F -  
Max Temperature 25 °F 40 °F 66 °F (2007)
Min Temperature -13 °F 18 °F -19 °F (1951)
Degree Days  
Heating Degree Days 59    
Moisture  
Dew Point -2 °F    
Average Humidity 66    
Maximum Humidity 83    
Minimum Humidity 42    
Precipitation  
Precipitation 0.00 in - - ()
Sea Level Pressure  
Sea Level Pressure 30.22 in    
Wind  
Wind Speed 3 mph (SW)    
Max Wind Speed 17 mph    
Max Gust Speed 24 mph    
Visibility 10 miles    
Events      
Averages and records for this station are not official NWS values.
T = Trace of Precipitation, MM = Missing Value Source: NWS Daily Summary

Daily Weather History Graph

Daily Weather History Graph

Search for Another Location

Airport:

Trip Planner

Search our weather history database for the weather conditions in past years. The results will help you decide how hot, cold, wet, or windy it might be!

Date:

Astronomy

Mar. 26, 2014 Rise Set
Actual Time 7:30 AM EDT 7:59 PM EDT
Civil Twilight 7:01 AM EDT 8:29 PM EDT
Nautical Twilight 6:25 AM EDT 9:04 PM EDT
Astronomical Twilight 5:49 AM EDT 9:41 PM EDT
Moon 4:51 AM EDT 3:25 PM EDT
Length of Visible Light 13h 28m
Length of Day
12h 28m
Waning Crescent, 22% of the Moon is Illuminated
Mar 26
Waning Crescent
Mar 30
New
Apr 7
First Quarter
Apr 15
Full
Apr 22
Last Quarter

Hourly Weather History & Observations

Time (EDT) Temp. Windchill Dew Point Humidity Pressure Visibility Wind Dir Wind Speed Gust Speed Precip Events Conditions
12:54 AM -5.1 °F - -9.0 °F 83% 30.21 in 10.0 mi Calm Calm - N/A   Clear
1:54 AM -7.1 °F - -11.9 °F 79% 30.23 in 10.0 mi Calm Calm - N/A   Clear
2:54 AM -8.0 °F - -13.0 °F 79% 30.23 in 10.0 mi Calm Calm - N/A   Clear
3:54 AM -9.9 °F - -16.1 °F 74% 30.23 in 10.0 mi Calm Calm - N/A   Scattered Clouds
4:54 AM -13.0 °F - -18.0 °F 78% 30.24 in 10.0 mi Calm Calm - N/A   Clear
5:54 AM -11.9 °F - -18.0 °F 74% 30.25 in 10.0 mi Calm Calm - N/A   Partly Cloudy
6:26 AM -11.9 °F - -18.0 °F 74% 30.19 in 10.0 mi Calm Calm - N/A   Mostly Cloudy
6:33 AM -13.0 °F - -18.0 °F 78% 30.18 in 10.0 mi Calm Calm - N/A   Scattered Clouds
6:54 AM -11.9 °F - -18.0 °F 74% 30.25 in 10.0 mi Calm Calm - N/A   Partly Cloudy
7:54 AM -11.9 °F - -18.0 °F 74% 30.27 in 10.0 mi Calm Calm - N/A   Scattered Clouds
8:54 AM -7.1 °F - -11.0 °F 83% 30.29 in 10.0 mi Calm Calm - N/A   Clear
9:54 AM 7.0 °F 0.1 °F -0.9 °F 70% 30.29 in 10.0 mi ESE 3.5 mph - N/A   Scattered Clouds
10:54 AM 17.1 °F 5.8 °F 6.1 °F 62% 30.28 in 10.0 mi WSW 9.2 mph - N/A   Clear
11:54 AM 19.9 °F 8.6 °F 6.1 °F 55% 30.28 in 10.0 mi SSW 10.4 mph - N/A   Clear
12:54 PM 21.0 °F 8.6 °F 5.0 °F 50% 30.28 in 10.0 mi WSW 12.7 mph - N/A   Partly Cloudy
1:54 PM 23.0 °F 9.2 °F 3.0 °F 42% 30.27 in 10.0 mi SW 17.3 mph 24.2 mph N/A   Scattered Clouds
2:54 PM 24.1 °F 12.5 °F 3.9 °F 42% 30.25 in 10.0 mi WSW 12.7 mph 24.2 mph N/A   Clear
3:54 PM 24.1 °F 13.7 °F 8.1 °F 51% 30.23 in 10.0 mi SW 10.4 mph - N/A   Clear
4:54 PM 24.1 °F 13.7 °F 8.1 °F 51% 30.20 in 10.0 mi SW 10.4 mph - N/A   Clear
5:54 PM 25.0 °F 14.2 °F 9.0 °F 51% 30.19 in 10.0 mi SW 11.5 mph - N/A   Clear
6:54 PM 23.0 °F 14.7 °F 10.0 °F 58% 30.18 in 10.0 mi West 6.9 mph - N/A   Clear
7:54 PM 19.9 °F 13.4 °F 9.0 °F 62% 30.17 in 10.0 mi West 4.6 mph - N/A   Mostly Cloudy
8:54 PM 19.9 °F - 10.0 °F 65% 30.17 in 10.0 mi Calm Calm - N/A   Overcast
9:54 PM 18.0 °F - 10.0 °F 71% 30.15 in 10.0 mi Calm Calm - N/A   Overcast
10:54 PM 19.9 °F - 10.9 °F 68% 30.13 in 10.0 mi Calm Calm - N/A   Overcast
11:54 PM 21.0 °F - 12.0 °F 68% 30.11 in 10.0 mi Calm Calm - N/A   Overcast